軌道要素
Epoch 1951 Dec. 20.0 TT = JDT 2434000.5
T 1951 Dec. 7.63204 TT MPCW
q 2.8706873 (2000.0) P Q
n 0.08955827 Peri. 136.86263 +0.62399410 -0.77908126
a 4.9476492 Node 274.43672 +0.69942268 +0.59137485
e 0.4197876 Incl. 3.48062 +0.34848139 +0.20810616
P 11.01
From 289 observations 1951 Dec. 1-2016 Oct. 24, mean residual 0".6.
|